Content
SEND FEEDBACK

Daily
Averages
Monthly
Summary
Canada

RICHMOND NATURE PARK, BRITISH COLUMBIA


Home > North America > Canada > British Columbia
Elevation: 10 feet     Latitude: 49 10N     Longitude: 123 05W

WEATHER
 
SELECT A DAY
Number of Records: 194,771;   Date Range: 1/1/95 - 8/27/14
 
SHARE

PRINT THIS DATA

[ ← Previous Day ]
WEATHER ALMANAC - AUGUST 25, 2013
[ Next Day → ]
[ °C ]   °F
Weather ElementAverageHighLow
Temperature64.1 °F72 °F (5:00 pm)55.4 °F (6:00 am)
Dewpoint54.3 °F57.2 °F (11:00 am)51.8 °F (6:00 am)
Humidity70.8 %88 % (1:00 am)44 % (5:00 pm)
Barometer29.91 in29.96 in (8:00 am)29.86 in (6:00 pm)
Wind Speed6.3 mph10.4 mph (12:00 pm)
Weather ElementAverage
Visibility26 mi
Wind DirectionS (175 °)

Weather ElementTotal
Precipitation---
Heating Degree Days1.3 (Base 65)
Growing Degree Days13.7 (Base 50)
Averaged from 26 records on August 25, 2013
WEATHER CONDITIONS BREAKOUT
WIND DIRECTION BREAKOUT
WEATHER BY HOUR - AUGUST 25, 2013
[ °C ]   °F
Local TimeTemperatureDewpointHumidityBarometerVisibilityWind DirectionWind SpeedGust SpeedPrecipitationEventsConditions
1:00 AM59.0 °F55.4 °F88 %29.92 in20.0 miVariable2.3 mphMostly Cloudy
2:00 AM59.0 °F53.6 °F82 %29.93 in20.0 miEast (100°)5.8 mphMostly Cloudy
3:00 AM59.0 °F53.6 °F82 %29.93 in20.0 miEast (90°)4.6 mphScattered Clouds
4:00 AM57.2 °F53.6 °F88 %29.93 in20.0 miEast (90°)5.8 mphMostly Cloudy
5:00 AM58.0 °F53.0 °F79 %29.94 in19.0 miEast (90°)4.6 mphScattered Clouds
5:00 AM57.2 °F53.6 °F88 %29.94 in20.0 miEast (90°)4.6 mphMostly Cloudy
6:00 AM55.4 °F51.8 °F88 %29.94 in20.0 miESE (110°)5.8 mphScattered Clouds
7:00 AM57.2 °F53.6 °F88 %29.95 in30.0 miEast (90°)4.6 mphScattered Clouds
8:00 AM60.8 °F55.4 °F82 %29.96 in30.0 miESE (110°)5.8 mphScattered Clouds
9:00 AM62.6 °F51.8 °F68 %29.95 in30.0 miSE (130°)4.6 mphPartly Cloudy
10:00 AM64.4 °F53.6 °F68 %29.96 in30.0 miSSW (210°)3.5 mphPartly Cloudy
11:00 AM65.0 °F57.0 °F68 %29.95 in28.0 miWSW (240°)8.1 mphScattered Clouds
11:00 AM64.4 °F57.2 °F77 %29.95 in30.0 miWSW (240°)8.1 mphPartly Cloudy
12:00 PM66.2 °F57.2 °F73 %29.94 in30.0 miWSW (240°)10.4 mphPartly Cloudy
1:00 PM68.0 °F57.2 °F68 %29.92 in30.0 miWest (260°)9.2 mphPartly Cloudy
2:00 PM68.0 °F57.2 °F68 %29.91 in30.0 miWSW (250°)9.2 mphScattered Clouds
3:00 PM69.8 °F55.4 °F60 %29.90 in30.0 miWest (260°)8.1 mphScattered Clouds
4:00 PM69.8 °F55.4 °F60 %29.88 in30.0 miWest (270°)6.9 mphScattered Clouds
5:00 PM72.0 °F55.0 °F44 %29.87 in28.0 miWNW (300°)5.8 mphPartly Cloudy
5:00 PM71.6 °F55.4 °F57 %29.87 in30.0 miWNW (300°)5.8 mphScattered Clouds
6:00 PM71.6 °F51.8 °F50 %29.86 in30.0 miWSW (250°)9.2 mphMostly Cloudy
7:00 PM68.0 °F51.8 °F56 %29.86 in30.0 miWSW (250°)3.5 mphMostly Cloudy
8:00 PM66.2 °F55.4 °F68 %29.86 in30.0 miSW (230°)3.5 mphMostly Cloudy
9:00 PM66.2 °F51.8 °F60 %29.87 in20.0 miSSE (150°)5.8 mphMostly Cloudy
10:00 PM64.4 °F53.6 °F68 %29.87 in20.0 miEast (100°)6.9 mphMostly Cloudy
11:00 PM64.4 °F51.8 °F64 %29.87 in20.0 miEast (100°)10.4 mphMostly Cloudy
Hourly data recorded from CYVR, located miles away from Richmond Nature Park, British Columbia







STORIES FROM OUR PARTNERS